Location: Newark
(63.1158°N, 8.1461°E)
Time: 23:27:43
(UTC+00:00)

Envisat - Pass Details

Date: 14 December 2019
Orbit: 764 x 766 km, 98.1° (Epoch: 18 January)

Event Time Altitude Azimuth Distance (km) Brightness Sun altitude
Rises 16:51:53 0° 162° (SSE) 3,230 6.2 -17.3°
Reaches altitude 10° 16:54:11 10° 163° (SSE) 2,307 5.5 -17.5°
Maximum altitude 16:59:17 83° 251° (WSW) 782 3.0 -18.1°
Drops below altitude 10° 17:04:26 10° 341° (NNW) 2,320 5.5 -18.6°
Sets 17:06:45 0° 342° (NNW) 3,251 6.3 -18.9°
